| time (UTC) | temp F | wind direction | speed MPH | gust MPH | rain 1hr in | rain 24hr in | rain mn in | humidity % | barometer mb |
| 20260903140106 | 71 | 273 | 0.0 | 4.0 | 0.00 | 0.38 | 0.25 | 97 | 1014.5 |
| 20260903134601 | 71 | 269 | 1.0 | 6.0 | 0.00 | 0.38 | 0.25 | 99 | 1014.5 |
| 20260903133100 | 70 | 0 | 1.0 | 8.0 | 0.00 | 0.38 | 0.25 | 100 | 1014.4 |
| 20260903131600 | 70 | 0 | 0.0 | 7.0 | 0.00 | 0.38 | 0.25 | 100 | 1014.5 |
| 20260903130117 | 70 | 0 | 0.0 | 3.0 | 0.00 | 0.38 | 0.25 | 100 | 1014.7 |
| 20260903124607 | 69 | 0 | 0.0 | 2.0 | 0.00 | 0.38 | 0.25 | 100 | 1014.9 |
| 20260903123100 | 69 | 0 | 0.0 | 0.0 | 0.00 | 0.38 | 0.25 | 100 | 1015.1 |
| 20260903121553 | 68 | 0 | 0.0 | 0.0 | 0.00 | 0.38 | 0.25 | 100 | 1015.1 |
| 20260903120100 | 68 | 0 | 0.0 | 0.0 | 0.01 | 0.38 | 0.25 | 100 | 1014.7 |
| 20260903114607 | 68 | 0 | 0.0 | 0.0 | 0.01 | 0.38 | 0.25 | 100 | 1015.1 |
| 20260903113058 | 68 | 0 | 0.0 | 0.0 | 0.01 | 0.38 | 0.25 | 100 | 1015.2 |
| 20260903111622 | 67 | 0 | 0.0 | 0.0 | 0.01 | 0.38 | 0.25 | 100 | 1015.2 |
| 20260903110107 | 67 | 0 | 0.0 | 0.0 | 0.00 | 0.37 | 0.24 | 100 | 1015.2 |
| 20260903104631 | 67 | 0 | 0.0 | 0.0 | 0.00 | 0.37 | 0.24 | 100 | 1015.2 |
| 20260903103056 | 67 | 0 | 0.0 | 0.0 | 0.00 | 0.37 | 0.24 | 100 | 1015.2 |
| 20260903101554 | 67 | 0 | 0.0 | 2.0 | 0.00 | 0.37 | 0.24 | 100 | 1015.2 |
| 20260903100051 | 67 | 0 | 0.0 | 3.0 | 0.00 | 0.37 | 0.24 | 100 | 1014.8 |
| 20260903094608 | 67 | 265 | 0.0 | 8.0 | 0.00 | 0.38 | 0.24 | 100 | 1014.6 |
| 20260903093054 | 67 | 0 | 0.0 | 4.0 | 0.00 | 0.38 | 0.24 | 100 | 1014.5 |
| 20260903091551 | 67 | 0 | 1.0 | 7.0 | 0.00 | 0.38 | 0.24 | 100 | 1014.6 |
| 20260903090052 | 67 | 0 | 0.0 | 3.0 | 0.00 | 0.38 | 0.24 | 100 | 1015.0 |
| 20260903084552 | 67 | 0 | 0.0 | 0.0 | 0.00 | 0.39 | 0.24 | 100 | 1014.9 |
| 20260903083059 | 67 | 0 | 0.0 | 0.0 | 0.00 | 0.39 | 0.24 | 100 | 1014.9 |
| 20260903081553 | 66 | 0 | 0.0 | 3.0 | 0.00 | 0.39 | 0.24 | 100 | 1015.2 |
| 20260903080052 | 66 | 0 | 0.0 | 0.0 | 0.01 | 0.39 | 0.24 | 100 | 1015.7 |
| 20260903074604 | 66 | 0 | 0.0 | 0.0 | 0.02 | 0.39 | 0.24 | 100 | 1015.6 |
| 20260903073108 | 66 | 0 | 0.0 | 0.0 | 0.02 | 0.39 | 0.24 | 100 | 1015.5 |
| 20260903071553 | 66 | 0 | 0.0 | 0.0 | 0.02 | 0.39 | 0.24 | 100 | 1015.5 |
| 20260903070051 | 66 | 0 | 0.0 | 1.0 | 0.02 | 0.38 | 0.23 | 100 | 1015.6 |
| 20260903064600 | 66 | 0 | 0.0 | 1.0 | 0.01 | 0.38 | 0.22 | 100 | 1015.7 |
| 20260903063057 | 66 | 0 | 0.0 | 0.0 | 0.02 | 0.38 | 0.22 | 100 | 1016.0 |
| 20260903061612 | 66 | 0 | 0.0 | 0.0 | 0.05 | 0.38 | 0.22 | 100 | 1016.3 |
| 20260903060105 | 66 | 0 | 0.0 | 0.0 | 0.10 | 0.37 | 0.21 | 100 | 1016.6 |
| 20260903054559 | 66 | 0 | 0.0 | 1.0 | 0.14 | 0.37 | 0.21 | 100 | 1017.0 |
| 20260903053107 | 66 | 0 | 0.0 | 3.0 | 0.17 | 0.36 | 0.20 | 100 | 1016.7 |
| 20260903051551 | 66 | 0 | 0.0 | 0.0 | 0.17 | 0.33 | 0.17 | 100 | 1017.1 |
| 20260903050107 | 67 | 0 | 0.0 | 0.0 | 0.11 | 0.27 | 0.11 | 99 | 1018.1 |
| 20260903044548 | 67 | 0 | 1.0 | 4.0 | 0.07 | 0.23 | 0.07 | 99 | 1018.8 |
| 20260903043053 | 67 | 0 | 0.0 | 2.0 | 0.03 | 0.19 | 0.03 | 99 | 1018.3 |
| 20260903041556 | 67 | 0 | 0.0 | 0.0 | 0.00 | 0.16 | 0.00 | 99 | 1018.3 |
| 20260903040050 | 67 | 0 | 0.0 | 0.0 | 0.00 | 0.16 | 0.00 | 98 | 1018.3 |
| 20260903034557 | 67 | 0 | 0.0 | 0.0 | 0.00 | 0.16 | 0.16 | 98 | 1018.3 |
| 20260903033054 | 67 | 0 | 0.0 | 0.0 | 0.00 | 0.16 | 0.16 | 98 | 1018.4 |
| 20260903031552 | 67 | 0 | 0.0 | 0.0 | 0.00 | 0.16 | 0.16 | 98 | 1018.2 |
| 20260903030109 | 67 | 0 | 0.0 | 0.0 | 0.00 | 0.16 | 0.16 | 98 | 1018.1 |
| 20260903024553 | 67 | 0 | 0.0 | 0.0 | 0.00 | 0.16 | 0.16 | 98 | 1018.4 |
| 20260903023051 | 67 | 0 | 0.0 | 0.0 | 0.00 | 0.16 | 0.16 | 98 | 1018.2 |
| 20260903021549 | 67 | 0 | 0.0 | 0.0 | 0.00 | 0.16 | 0.16 | 98 | 1018.7 |
| 20260903020100 | 66 | 0 | 0.0 | 0.0 | 0.00 | 0.16 | 0.16 | 97 | 1018.6 |
| 20260903014609 | 66 | 0 | 0.0 | 0.0 | 0.00 | 0.16 | 0.16 | 97 | 1018.6 |
| 20260903013105 | 66 | 0 | 0.0 | 0.0 | 0.00 | 0.16 | 0.16 | 97 | 1018.9 |
| 20260903011612 | 66 | 0 | 0.0 | 0.0 | 0.00 | 0.16 | 0.16 | 97 | 1019.0 |
| 20260903010117 | 66 | 0 | 0.0 | 0.0 | 0.00 | 0.16 | 0.16 | 97 | 1019.3 |
| 20260903004554 | 66 | 0 | 0.0 | 2.0 | 0.00 | 0.19 | 0.16 | 97 | 1019.1 |
| 20260903003054 | 66 | 0 | 0.0 | 0.0 | 0.00 | 0.19 | 0.16 | 97 | 1019.6 |
| 20260903001601 | 66 | 0 | 0.0 | 0.0 | 0.00 | 0.19 | 0.16 | 97 | 1019.0 |
| 20260903000059 | 66 | 0 | 0.0 | 1.0 | 0.00 | 0.19 | 0.16 | 97 | 1018.9 |
| 20260902234559 | 66 | 0 | 0.0 | 0.0 | 0.00 | 0.19 | 0.16 | 97 | 1018.6 |
| 20260902233051 | 66 | 0 | 0.0 | 0.0 | 0.00 | 0.19 | 0.16 | 97 | 1018.7 |
| 20260902231608 | 66 | 0 | 0.0 | 2.0 | 0.00 | 0.19 | 0.16 | 97 | 1018.9 |
| 20260902230100 | 66 | 0 | 0.0 | 0.0 | 0.00 | 0.19 | 0.16 | 97 | 1018.9 |
| 20260902224606 | 66 | 0 | 0.0 | 0.0 | 0.00 | 0.19 | 0.16 | 96 | 1019.1 |
| 20260902223056 | 66 | 360 | 0.0 | 1.0 | 0.00 | 0.19 | 0.16 | 96 | 1019.6 |
| 20260902221627 | 66 | 0 | 0.0 | 1.0 | 0.00 | 0.19 | 0.16 | 96 | 1019.4 |
| 20260902214602 | 67 | 0 | 0.0 | 1.0 | 0.00 | 0.19 | 0.16 | 96 | 1019.8 |
| 20260902213053 | 67 | 0 | 0.0 | 1.0 | 0.00 | 0.19 | 0.16 | 96 | 1019.5 |
| 20260902211602 | 67 | 0 | 0.0 | 0.0 | 0.00 | 0.19 | 0.16 | 96 | 1019.4 |
| 20260902210059 | 67 | 0 | 0.0 | 0.0 | 0.00 | 0.19 | 0.16 | 96 | 1019.5 |
| 20260902204558 | 68 | 0 | 0.0 | 1.0 | 0.00 | 0.19 | 0.16 | 96 | 1019.6 |
| 20260902203055 | 68 | 0 | 0.0 | 3.0 | 0.00 | 0.19 | 0.16 | 98 | 1019.3 |
| 20260902201559 | 67 | 0 | 0.0 | 0.0 | 0.00 | 0.19 | 0.16 | 98 | 1019.5 |
| 20260902200059 | 67 | 0 | 0.0 | 0.0 | 0.02 | 0.19 | 0.16 | 98 | 1019.6 |
| 20260902194558 | 67 | 0 | 0.0 | 1.0 | 0.04 | 0.19 | 0.16 | 99 | 1019.6 |
| 20260902193105 | 67 | 0 | 0.0 | 0.0 | 0.11 | 0.19 | 0.16 | 98 | 1019.7 |
| 20260902191631 | 67 | 0 | 0.0 | 0.0 | 0.13 | 0.19 | 0.16 | 98 | 1020.1 |
| 20260902190100 | 66 | 0 | 0.0 | 0.0 | 0.11 | 0.17 | 0.14 | 97 | 1020.2 |
| 20260902184600 | 67 | 0 | 0.0 | 1.0 | 0.09 | 0.16 | 0.12 | 96 | 1020.4 |
| 20260902183122 | 68 | 0 | 0.0 | 0.0 | 0.01 | 0.08 | 0.04 | 94 | 1020.8 |
| 20260902181607 | 68 | 0 | 0.0 | 0.0 | 0.00 | 0.07 | 0.03 | 93 | 1020.4 |
| 20260902180105 | 68 | 0 | 0.0 | 0.0 | 0.00 | 0.07 | 0.03 | 92 | 1020.0 |
| 20260902174558 | 68 | 0 | 0.0 | 1.0 | 0.00 | 0.09 | 0.03 | 91 | 1020.1 |
| 20260902173105 | 68 | 0 | 0.0 | 4.0 | 0.00 | 0.09 | 0.03 | 91 | 1020.2 |
| 20260902171614 | 68 | 0 | 0.0 | 5.0 | 0.00 | 0.09 | 0.03 | 91 | 1020.1 |
| 20260902170106 | 68 | 0 | 0.0 | 3.0 | 0.00 | 0.09 | 0.03 | 93 | 1020.0 |
| 20260902164602 | 67 | 0 | 0.0 | 0.0 | 0.00 | 0.10 | 0.03 | 95 | 1020.4 |
| 20260902163103 | 67 | 0 | 0.0 | 0.0 | 0.00 | 0.10 | 0.03 | 95 | 1020.7 |
| 20260902161558 | 67 | 0 | 0.0 | 0.0 | 0.00 | 0.10 | 0.03 | 95 | 1020.6 |
| 20260902160105 | 66 | 0 | 0.0 | 0.0 | 0.00 | 0.10 | 0.03 | 96 | 1020.5 |
| 20260902154549 | 66 | 0 | 0.0 | 0.0 | 0.00 | 0.17 | 0.03 | 97 | 1020.7 |
| 20260902153053 | 65 | 0 | 0.0 | 0.0 | 0.00 | 0.17 | 0.03 | 98 | 1020.6 |
| 20260902151556 | 65 | 0 | 0.0 | 0.0 | 0.00 | 0.17 | 0.03 | 98 | 1020.8 |
| 20260902150052 | 65 | 0 | 0.0 | 0.0 | 0.00 | 0.17 | 0.03 | 98 | 1021.0 |
| 20260902144548 | 65 | 0 | 0.0 | 0.0 | 0.00 | 0.21 | 0.03 | 99 | 1020.7 |
| 20260902143101 | 64 | 0 | 0.0 | 0.0 | 0.00 | 0.21 | 0.03 | 100 | 1020.7 |